Lid_Strength_Index
3 3 3 3 3 3 2 2 2 2 2 2 2 2 2 2 2 4 7 6 5 2 2 6 7 3 3 3 2 3 7 9 8 9 8 6 6 5 4 4 4 4 3 2 1
3 3 3 3 3 3 3 3 3 3 2 2 2 2 2 2 4 5 3 2 1 0 6 8 9 6 5 5 4 5 8 7 5 6 8 7 6 5 5 4 4 4 3 2 1
3 3 3 3 3 3 3 3 3 2 2 2 2 3 3 3 7 5 -1 1 1 2 5 7 7 8 6 5 5 5 8 5 5 4 6 7 6 5 5 6 4 4 3 3 2
4 3 3 3 3 3 3 2 2 2 2 3 3 3 3 4 12 5 2 2 2 3 4 4 5 7 8 8 6 7 6 5 5 4 6 7 5 6 5 5 4 3 3 2 2
3 3 2 2 2 2 2 2 2 2 2 2 2 2 3 7 9 6 3 2 4 4 6 7 6 6 8 6 6 8 7 5 5 5 5 6 7 6 6 4 3 3 3 3 3
3 3 3 3 3 3 2 2 2 2 2 2 2 2 5 10 5 4 3 3 4 5 6 6 6 5 7 7 6 5 7 7 6 5 5 6 5 5 4 3 3 3 3 2 3
3 3 3 3 3 2 2 2 2 2 1 1 2 2 5 7 4 2 3 3 3 4 6 5 6 7 6 8 6 6 7 6 7 6 6 5 7 7 4 4 4 4 3 3 2
3 3 3 3 3 2 2 2 2 2 1 1 1 3 7 4 2 3 3 4 3 3 4 4 5 7 7 6 7 8 8 10 7 6 7 7 10 6 4 4 5 4 4 4 3
3 3 3 3 3 2 2 2 2 2 1 1 2 4 8 3 5 4 3 5 4 4 4 5 5 8 8 9 9 9 12 10 9 5 6 7 9 7 5 5 5 5 4 4 3
3 3 3 3 3 2 2 2 1 1 1 2 3 6 6 7 5 4 3 4 5 6 6 7 8 9 10 10 13 11 10 10 10 7 6 7 8 6 5 5 5 5 4 4 4
3 3 3 3 3 2 2 3 5 5 5 7 7 8 7 5 4 5 4 5 6 7 9 8 10 12 10 10 9 9 9 9 8 7 7 7 7 6 5 5 6 5 5 5 4
3 3 3 3 3 3 2 5 6 5 8 6 6 6 5 5 8 6 4 7 8 10 8 10 11 9 9 10 10 10 10 10 8 7 7 8 8 6 5 5 4 5 5 5 5
3 3 3 3 3 3 4 4 2 3 7 8 6 7 6 5 8 7 6 6 8 9 9 10 8 7 9 10 11 10 11 10 10 8 7 8 9 8 6 5 4 4 4 5 5
3 4 3 3 4 3 4 3 2 2 10 10 9 7 6 6 8 5 4 6 7 8 7 8 6 7 7 9 9 11 9 9 9 10 12 7 13 9 7 7 6 5 4 4 3
3 4 3 4 3 4 3 2 2 4 15 10 8 4 5 7 7 7 3 5 7 7 7 8 8 8 9 8 7 9 7 8 9 10 10 10 11 10 7 8 7 5 4 4 3
4 4 4 4 2 2 2 2 4 11 18 11 8 8 8 7 7 5 5 3 4 7 7 7 5 6 7 6 6 6 8 8 8 10 14 11 11 11 9 8 7 5 5 4 4
4 4 4 2 4 2 2 4 11 14 10 11 10 8 8 9 7 6 7 7 9 12 10 8 8 6 6 8 6 7 9 13 14 15 16 10 11 10 7 7 7 6 5 4 3
5 5 4 2 1 2 3 8 14 12 11 8 9 8 9 8 7 7 7 9 7 8 10 13 13 9 6 7 9 9 10 13 16 15 14 10 12 11 7 6 6 5 4 3 3
5 2 2 1 1 2 6 11 11 11 9 9 8 10 9 8 8 8 8 9 8 7 12 12 12 7 7 6 7 9 12 8 12 11 13 11 9 8 7 6 6 5 4 4 4
5 3 3 2 1 3 8 12 10 8 8 8 11 9 11 9 9 9 9 7 8 6 6 9 13 8 7 6 6 8 8 15 12 16 16 12 11 11 8 8 7 6 5 5 5
5 6 4 3 2 6 10 10 9 7 7 8 9 10 9 10 9 9 9 7 6 7 6 7 10 10 8 10 10 11 12 11 10 11 15 14 12 7 7 6 7 6 5 5 5
6 9 4 3 8 7 10 10 8 8 6 7 7 8 9 9 10 9 10 8 5 6 9 7 10 12 10 7 6 9 11 12 16 14 11 12 11 6 6 6 6 6 5 5 5
9 8 4 5 10 11 10 9 8 8 8 8 8 7 7 9 12 9 8 6 5 7 8 8 10 14 11 9 8 9 8 10 10 11 14 13 11 6 6 6 6 6 5 4 6
9 11 7 7 7 11 11 10 9 7 7 6 7 6 8 10 8 11 10 8 7 6 6 7 10 12 14 11 9 11 9 9 9 13 12 11 10 8 6 6 6 6 5 4 6
9 10 9 10 9 10 9 10 10 10 7 6 8 8 9 12 10 10 9 9 8 7 7 9 13 10 9 9 9 9 10 9 10 9 12 11 10 8 6 7 7 6 6 5 6
10 11 9 10 9 10 10 10 10 10 8 8 9 8 8 11 10 12 10 10 11 9 9 9 14 11 12 9 9 10 9 9 9 9 9 9 11 7 6 7 8 8 7 6 6
8 9 11 11 10 12 10 9 9 8 7 6 7 8 9 8 7 6 7 7 8 10 11 11 12 12 15 10 10 12 10 9 9 8 8 10 9 7 8 8 7 7 7 6 7